星链-4655 (STARLINK-4655 )

导读

STARLINK-4655是美国SpaceX公司星链(Starlink)星座的组网卫星,于2022年8月28日由猎鹰9火箭发射,归属于星链Group 4-16任务组。作为近地轨道互联网卫星,它质量约297kg,运行在约550公里高度轨道,为全球尤其是偏远地区提供高速低延迟宽带互联网服务,助力星链全球互联网络的构建。

基本信息
目录编号:
53613
目录名称:
STARLINK-4655
国际标识:
2022-104AB
轨道中心:
EARTH
卫星名称:
星链-4655
卫星全名:
星链-4655 (STARLINK-4655 )
卫星状态:
在轨 (已飞行1389 天)
发射日期:
2022-08-28 UTC
国别 :
美国 (US)
星等 :
--
轨道信息
数据来源 国际轨道数据 AOE轨道数据
星历时间 2026-06-16T23:46:56+0800
16小时前
查看轨道信息
2026-06-16T05:00:00+0800
1天前
查看轨道信息
半长轴 6917.91km 6917.905km
偏心率 0.000125 0.0001479
轨道倾角 53.160° 53.161°
近地点辐角 83.263° 102.268°
升交点赤经 149.896° 153.412°
平近点角 276.851° 324.636°
近地点 538.908km 538.744km
远地点 540.638km 540.792km
周期 95.438分钟 95.438分钟
每日圈数 15.088304 15.088321
详细信息
固有亮度:
5
最大亮度:
2.5
卫星平台:
Starlink v1.5
覆盖范围:
全球
运营商:
太空探索技术公司
运营商所在国:
美国
制造商(研发单位):
太空探索技术公司
制造商所在国:
美国
使用方式:
暂无
卫星简介
星链(Starlink)计划是由太空探索技术公司(SpaceX)提出的一个巨型低轨卫星互联网星座项目,计划在2019年至2024年间在太空搭建由约1.2万颗卫星组成的“星链”网络,其中1584颗将部署在地球上空550千米处的近地轨道,并从2020年开始工作。该卫星仍在工作。
2D轨道图
3D轨道图
轨道高度分析图
轨道倾角分析图
轨道综合分析图
查看轨道综合分析图